Location: Brantley
(31.5822°N, 86.2569°W)
Time: 21:25:57
(UTC+00:00)

Injun/Solrad 3 - Pass Details

Date: 24 February 2026
Orbit: 872 x 984 km, 66.8° (Epoch: 6 March)

Event Time Altitude Azimuth Distance (km) Brightness Sun altitude
Rises 13:41:43 0° 163° (SSE) 3,443 11.5 16.4°
Reaches altitude 10° 13:44:59 10° 145° (SE) 2,510 11.3 17.0°
Maximum altitude 13:48:44 18° 104° (ESE) 2,017 12.3 17.8°
Drops below altitude 10° 13:52:29 10° 64° (ENE) 2,534 10.9 18.5°
Sets 13:55:47 0° 46° (NE) 3,490 11.2 19.1°
